Location: Arrodets-la-Barthe
(43.0306°N, 0.2829°E)
Time: 08:29:50
(UTC+00:00)

CUBEBUG 2 - Pass Details

Date: 01 April 2023
Orbit: 577 x 685 km, 97.8° (Epoch: 03 June)

Event Time Altitude Azimuth Distance (km) Brightness Sun altitude
Rises 03:20:03 0° 3° (N) 3,066 ? -25.0°
Reaches altitude 10° 03:22:30 10° 353° (N) 2,140 ? -24.6°
Enters shadow 03:25:29 28° 319° (NW) 1,277 ? -24.2°
